Regional Weather Roundup
Issued by NWS Goodland, KS

Home | Current Version | Previous Version | Text Only | Print | Product List | Glossary On
Versions: 1 2 3 4 5 6 7 8 9 10 11 12 13 14 15 16 17 18 19 20 21 22 23 24 25 26 27 28 29 30 31 32 33 34 35 36 37 38 39 40 41 42 43 44 45 46 47 48 49 50
000
ASUS43 KGLD 030108
RWRGLD

GOODLAND FORECAST AREA HOURLY WEATHER ROUNDUP
NATIONAL WEATHER SERVICE GOODLAND KS
700 PM MDT MON MAY 02 2016

...OFFICIAL OBSERVATIONS...

CITY           SKY/WX    TMP DP  RH WIND       PRES   REMARKS
GOODLAND KS    CLEAR     58  29  33 N7        30.06F
HILL CITY KS   CLEAR     64  34  32 CALM      30.05S
IMPERIAL NEB   MOCLDY    57  37  47 S6        30.04F
MCCOOK NEB     CLOUDY    58  36  43 W8        30.03F
AKRON CO       CLEAR     54  32  43 SW9       30.07S
BURLINGTON CO  CLEAR     57  18  21 NW7       30.09S
LIMON CO       CLEAR     52  25  35 CALM      30.12F
$$

...UNOFFICIAL OBSERVATIONS...

CITY           SKY/WX    TMP DP  RH WIND       PRES   REMARKS
COLBY KS       CLEAR     57  45  62 N3        30.07S
LENORA KS        N/A     59  32  36 MISG        N/A
NORTON KS      CLEAR     57  34  41 CALM      30.03S
SHARON SPRINGS   N/A     58  34  41 N5          N/A
KIT CARSON CO    N/A     63  21  20 MISG        N/A
YUMA CO          N/A     59  32  36 W5          N/A
$$




USA.gov is the U.S. government's official web portal to all federal, state and local government web resources and services.